GFSMW_sfc_wetblb_093.txt.gz
Wetbulb
61.95 62.16 61.84 61.14 60.01 59.99 59.61 60.14 58.52 59.28 59.54 59.51 58.16 57.74 57.63 59.11 58.83 59.02 59.09 58.83 58.98 59.66 61.11 60.25 59.43 59.32 59.10 58.29 59.04 59.24 59.20 58.95 58.78 55.94 55.40 56.79 58.08 57.99 57.49 57.86 58.56 59.41 59.87
60.96 60.69 61.15 60.17 58.82 58.62 58.68 59.50 59.82 59.47 59.80 59.62 60.09 58.46 57.75 58.48 58.45 58.84 58.75 58.91 59.03 59.36 59.34 59.21 59.16 59.29 59.29 58.92 59.57 59.49 58.18 58.15 57.91 55.09 56.24 54.12 54.92 56.43 57.57 58.64 58.14 59.63 58.52
60.20 60.10 60.14 59.77 58.51 58.45 58.78 59.22 59.43 59.67 60.02 59.58 59.84 59.71 59.15 58.27 57.45 57.86 57.84 58.13 59.27 59.89 59.99 60.25 60.02 59.79 59.40 60.13 61.18 60.54 59.54 57.39 57.40 58.94 57.97 55.18 53.78 56.03 58.04 58.40 58.87 60.08 59.08
60.68 60.59 60.19 59.95 58.92 59.71 60.02 59.11 59.51 59.04 59.95 61.43 59.84 57.82 57.15 56.08 57.55 57.38 58.40 59.00 59.81 59.73 59.62 60.78 60.54 60.75 61.93 61.60 59.28 60.43 60.30 61.39 58.64 59.50 58.92 60.73 59.00 55.61 54.59 58.38 58.75 59.28 58.67
60.61 60.17 60.44 60.19 60.68 59.31 60.43 60.37 58.90 58.54 59.80 59.78 60.15 59.15 57.47 56.51 57.48 57.57 57.81 59.05 57.40 58.19 58.93 61.05 62.21 61.03 61.62 62.02 61.41 61.86 62.23 62.00 60.69 60.10 59.90 58.82 58.49 59.17 56.04 53.64 56.73 58.61 58.81
60.45 61.00 61.32 60.58 60.83 60.11 59.37 60.78 59.03 58.49 58.98 59.83 59.75 59.21 57.00 56.52 56.75 56.31 55.92 57.17 57.54 56.84 58.41 61.35 61.95 63.02 62.37 62.02 62.68 62.90 62.54 61.75 61.77 61.89 60.84 59.53 57.54 56.76 57.09 56.13 56.65 56.59 58.28
60.36 60.65 60.44 59.49 59.83 59.62 58.54 59.34 58.86 57.83 58.42 59.28 59.55 59.54 58.69 58.58 57.37 56.75 55.76 55.95 56.37 57.10 58.05 59.50 60.47 61.88 62.68 62.67 62.68 62.57 62.91 62.80 61.95 62.32 61.51 61.77 60.27 60.89 60.13 58.52 57.48 56.69 58.70
60.36 60.77 60.78 60.45 59.80 59.67 59.63 59.85 58.41 57.90 58.85 58.27 59.03 59.67 58.80 57.28 57.22 59.18 58.67 56.86 56.54 56.41 57.49 58.12 58.60 61.66 62.58 62.66 63.13 63.09 63.90 63.60 62.68 62.60 62.78 61.95 61.65 61.15 59.88 59.38 58.06 54.38 54.96
59.94 60.62 61.29 61.60 60.52 60.09 59.98 60.39 59.80 59.72 59.07 59.37 59.45 58.94 58.70 58.19 57.99 59.40 61.28 60.26 59.26 58.66 59.29 59.32 60.53 61.47 62.86 62.82 63.39 63.05 62.82 62.78 62.70 62.80 63.03 61.84 61.66 61.50 62.56 62.00 58.82 55.49 50.77
59.49 60.57 61.39 61.90 61.78 60.95 60.64 60.65 60.45 60.13 60.02 60.49 60.33 60.18 59.58 60.51 60.64 60.08 60.15 61.62 61.20 61.53 61.87 61.99 62.44 62.58 62.77 63.03 63.16 62.12 62.70 62.02 62.25 62.56 62.00 61.95 61.40 60.90 60.96 59.12 57.91 55.92 52.83
59.26 60.39 61.46 62.31 62.71 62.05 61.05 60.57 60.37 60.23 60.66 60.49 60.59 60.53 60.12 60.60 60.92 60.97 62.29 61.52 61.57 61.30 61.19 62.08 61.76 61.94 62.08 62.78 62.33 62.38 62.44 61.74 61.91 62.03 61.01 60.55 58.64 56.77 56.71 57.40 56.36 54.05 53.35
59.79 60.47 61.34 62.14 62.15 62.13 61.31 60.55 60.52 60.32 60.65 61.33 61.16 60.59 61.39 61.63 61.54 62.02 61.32 62.80 62.49 63.02 62.38 62.15 61.74 61.50 61.99 62.36 61.76 61.04 61.31 61.15 60.80 60.76 59.68 56.37 55.72 57.51 57.62 55.66 53.65 52.85 52.23
58.88 60.41 60.84 61.33 61.93 62.20 61.80 61.19 60.60 60.22 60.73 60.93 61.16 62.10 62.34 62.20 62.14 62.18 62.21 62.59 61.39 61.14 61.33 61.64 61.58 61.50 61.77 61.56 62.09 61.97 61.59 61.37 60.52 59.06 55.83 54.93 55.43 56.34 55.43 53.97 52.92 51.75 51.47
56.27 58.63 59.96 60.93 61.82 62.12 62.26 61.78 61.15 60.82 60.61 60.45 60.68 61.16 61.34 61.70 61.96 62.60 62.76 62.72 62.93 61.99 61.45 62.39 62.22 62.23 61.66 61.46 61.63 61.35 61.50 60.83 59.45 58.26 56.59 56.07 56.38 55.61 54.95 52.74 52.24 49.71 46.87
54.74 56.12 58.76 60.26 61.53 61.95 62.49 62.66 62.39 61.81 61.21 60.31 60.40 61.09 61.61 61.89 61.58 62.03 62.35 62.08 62.12 61.67 61.26 61.32 61.27 61.06 60.67 59.99 60.83 60.67 58.84 59.48 57.96 45.26 41.85 39.53 39.21 38.30 38.88 45.41 44.72 43.81 42.74
53.80 56.12 57.18 59.31 60.49 61.50 62.25 62.42 62.68 63.12 62.89 61.31 60.84 60.97 61.25 60.65 60.99 61.51 61.44 61.36 60.76 60.59 60.23 59.83 59.59 59.11 49.87 40.04 42.48 47.72 51.39 46.15 42.74 37.60 35.66 35.07 34.37 34.00 33.97 33.92 33.42 33.57 35.91
54.34 55.51 56.22 57.46 59.07 61.03 62.31 62.50 62.76 63.37 62.28 61.56 61.08 60.69 60.48 59.85 60.77 60.05 59.78 59.63 59.72 59.35 52.89 48.57 46.02 42.29 40.92 38.56 38.81 38.99 39.06 37.17 35.70 34.76 33.78 32.76 32.71 33.29 32.72 32.10 31.90 31.63 31.85
55.10 55.94 56.75 57.40 58.39 59.65 62.04 62.91 63.22 62.63 62.01 61.40 61.13 60.82 60.52 59.85 59.96 59.87 58.90 53.85 51.20 46.95 42.94 40.35 38.38 36.37 35.52 36.06 36.06 35.11 34.22 32.87 32.44 32.45 32.44 31.06 30.27 31.45 31.56 31.37 30.54 29.99 30.25
56.03 56.00 56.70 57.16 58.06 58.98 60.41 61.94 62.12 61.92 61.34 60.52 60.52 60.59 60.57 59.57 56.04 50.00 46.62 43.75 40.02 37.78 36.65 35.81 34.55 33.75 33.22 34.32 34.25 33.50 31.43 29.82 29.23 29.71 30.09 29.44 28.74 30.56 32.29 30.59 29.97 30.64 29.27
56.47 56.85 57.60 57.53 57.80 59.32 60.46 60.57 60.05 59.91 59.11 59.82 57.74 56.10 52.03 49.05 45.33 42.39 39.63 37.77 36.04 34.19 33.10 31.97 32.32 32.50 31.79 32.72 32.19 31.66 30.19 27.60 27.42 27.90 28.03 29.14 28.68 29.14 29.91 30.22 29.77 28.81 30.19
54.98 56.31 57.11 57.02 58.04 59.13 59.58 59.02 57.29 50.62 49.11 47.65 46.29 44.93 43.72 41.44 39.50 37.36 35.83 34.07 32.37 31.26 30.45 30.29 31.02 31.68 32.30 32.38 32.43 31.93 30.34 29.27 28.46 27.80 27.09 27.50 28.27 28.51 28.47 27.90 30.19 27.85 27.86
52.39 54.97 55.93 56.21 57.35 57.45 52.98 47.54 44.62 44.30 43.49 41.98 40.48 39.25 38.61 37.70 36.36 34.82 34.41 33.19 31.13 29.87 29.46 29.12 28.48 29.16 29.95 30.94 31.37 31.55 31.74 31.67 30.26 29.87 29.86 27.82 26.59 27.05 27.97 28.57 26.36 25.60 26.52
48.85 49.92 49.86 49.56 49.07 47.87 45.24 41.08 39.91 39.38 38.10 36.95 36.31 36.25 35.95 35.46 35.06 33.75 32.38 31.53 31.33 29.95 28.91 28.28 27.51 27.56 28.78 29.13 29.34 29.31 29.23 29.42 28.96 28.59 26.47 26.16 26.45 27.35 26.80 25.67 25.36 26.03 28.06
44.43 44.75 44.16 42.93 42.34 42.49 41.11 39.85 38.71 37.83 36.23 34.28 33.49 33.15 32.11 31.77 31.97 32.64 32.79 31.62 30.76 30.09 29.22 28.39 28.26 29.45 29.84 29.98 31.07 30.67 30.51 29.96 29.86 28.44 29.06 27.47 26.93 26.93 27.59 27.93 27.33 27.44 26.33
39.95 40.42 39.82 39.05 39.59 39.57 38.66 38.71 37.39 36.34 33.68 32.85 32.50 31.24 30.26 29.10 28.27 28.71 28.72 28.95 30.85 32.23 30.79 30.97 29.87 27.58 25.30 25.73 26.71 27.10 26.86 27.55 26.80 29.07 29.29 27.78 26.32 25.51 25.27 25.49 25.01 24.77 23.70
35.49 37.31 37.54 38.17 39.30 39.73 39.21 39.29 39.24 37.08 35.27 32.62 32.06 30.18 29.13 28.52 27.84 26.78 26.52 29.21 28.74 29.16 28.67 27.98 26.88 25.83 25.58 25.29 24.88 24.41 24.27 24.46 25.52 27.27 25.10 24.18 23.29 22.05 22.14 21.54 21.02 21.39 20.20

GFSMW_sfc_wetblb_096.txt.gz
Wetbulb
61.12 62.14 62.07 61.21 60.12 59.10 59.37 59.26 59.27 59.54 59.52 58.45 57.91 59.44 59.66 61.04 60.94 61.51 61.47 61.02 60.00 59.35 59.07 58.35 58.63 57.98 57.23 56.98 57.93 56.51 54.86 54.68 54.80 53.46 53.15 52.50 54.65 54.91 55.17 55.99 55.63 56.50 57.87
60.47 60.26 60.39 59.92 59.21 58.52 59.02 59.07 58.58 59.21 59.39 58.92 58.54 58.49 58.96 59.19 58.92 58.92 58.87 59.16 58.32 58.76 57.93 57.10 57.10 57.52 57.21 56.59 56.71 55.79 55.06 54.46 54.68 51.69 50.82 49.30 51.45 52.93 54.09 53.44 54.01 54.20 56.18
59.35 59.46 59.60 59.19 58.94 57.67 58.12 58.92 59.42 59.52 59.08 59.34 58.41 57.92 58.04 57.89 57.25 57.03 57.10 57.77 58.04 58.20 58.12 57.89 57.15 57.85 57.42 56.90 57.40 56.84 55.72 53.98 54.65 54.27 54.10 51.66 50.06 51.05 52.95 53.07 53.91 53.21 54.34
60.34 59.75 59.64 58.43 58.21 57.59 58.76 58.95 59.71 59.85 58.93 59.63 58.28 57.07 55.99 54.98 55.92 56.30 56.58 57.36 57.52 58.14 58.54 59.10 58.89 58.17 58.53 57.98 57.85 58.35 57.09 56.77 53.72 53.97 55.49 56.02 55.66 51.58 49.96 52.48 53.95 54.97 55.30
60.11 59.40 59.33 59.40 58.89 59.18 59.44 58.90 59.35 59.57 59.46 59.20 58.93 57.53 56.43 56.33 55.79 55.03 55.01 56.50 57.24 57.51 58.29 59.00 58.91 58.74 58.64 58.62 58.69 58.08 57.60 57.78 57.76 56.67 55.63 54.80 54.93 54.97 52.90 50.40 52.75 54.14 54.91
59.73 60.06 60.40 60.14 59.16 59.45 58.76 59.31 58.44 58.72 59.48 59.81 58.68 57.90 56.73 55.83 54.96 54.48 53.83 54.91 56.34 57.19 57.68 58.25 58.85 58.91 58.43 58.75 58.85 58.75 58.59 58.56 58.46 57.85 57.54 55.97 54.58 53.80 52.77 51.85 52.11 52.09 53.86
59.32 59.36 59.02 58.49 59.02 58.32 58.08 58.54 58.39 57.31 58.90 59.08 59.39 58.65 57.41 56.80 55.72 55.39 54.99 55.29 55.13 55.53 56.01 55.84 56.07 57.92 58.72 58.69 58.87 58.95 58.94 58.81 58.06 57.90 57.58 58.00 56.89 56.72 55.49 53.68 52.22 51.83 53.68
59.45 59.38 59.42 58.46 59.26 58.47 58.04 57.89 58.25 57.38 58.11 59.14 58.90 58.87 57.97 57.23 57.06 56.71 56.32 56.28 55.42 54.99 55.92 56.43 56.81 58.57 58.76 59.42 59.97 59.43 59.36 59.29 59.21 58.21 58.34 57.50 57.80 57.83 56.91 55.45 53.40 51.72 52.85
58.64 59.32 60.06 59.07 58.82 58.82 58.34 58.54 58.35 58.13 57.53 58.73 59.21 58.82 58.44 58.03 57.34 57.19 56.81 56.86 56.68 56.80 56.37 56.48 56.80 57.72 58.60 59.38 59.29 59.20 58.68 59.27 58.79 58.66 58.19 57.97 58.72 58.75 58.64 57.38 56.41 53.70 49.84
58.39 59.28 60.07 59.98 59.49 59.51 59.17 59.32 59.02 58.46 58.18 57.93 58.95 58.82 58.21 57.97 57.76 57.27 56.81 56.87 56.83 57.16 56.83 56.83 56.85 57.04 57.12 59.31 59.10 58.60 58.86 58.52 58.07 58.59 58.16 58.18 58.38 58.44 58.95 58.95 57.45 55.41 54.17
57.75 59.11 60.00 60.85 60.22 59.95 59.61 59.67 59.31 58.95 58.47 58.66 58.63 58.84 58.29 57.76 57.82 57.82 58.02 58.20 57.14 56.95 56.75 56.69 56.72 57.29 57.82 57.93 58.40 58.20 58.65 58.22 58.07 57.75 57.41 57.90 58.49 58.33 58.29 55.61 54.71 54.68 54.25
58.27 59.18 59.95 61.06 60.72 59.54 59.41 59.07 59.19 58.93 59.36 59.66 59.09 58.72 58.84 58.65 58.25 58.22 58.52 58.89 58.73 58.37 57.23 57.53 58.41 58.08 57.97 58.83 58.43 58.10 58.29 57.95 57.21 57.31 57.44 57.54 58.06 57.18 55.67 54.56 54.19 54.25 54.74
58.94 59.25 59.67 60.41 60.91 60.51 59.62 59.31 59.20 59.20 59.91 59.63 59.51 59.07 59.05 58.72 58.67 59.26 58.92 59.54 59.22 59.20 59.11 58.50 58.56 58.88 58.83 58.64 58.40 58.20 57.87 57.78 57.97 57.48 56.83 57.22 55.93 54.55 54.58 54.29 54.57 54.72 53.31
55.59 58.40 59.18 59.79 60.95 61.34 60.73 59.93 59.29 59.59 59.63 59.87 59.35 58.92 59.23 59.14 58.73 59.47 59.50 59.50 59.76 59.35 59.30 59.49 59.32 58.95 58.85 58.79 58.66 58.50 57.84 57.95 57.97 56.46 49.98 44.53 42.87 43.21 47.22 52.82 52.18 51.21 50.60
53.02 54.95 57.17 58.80 60.21 61.18 61.43 60.93 60.00 59.68 59.74 58.94 59.16 59.38 59.77 60.27 60.26 59.70 59.71 59.84 59.82 59.25 59.35 58.75 58.59 58.93 58.82 56.99 54.76 57.40 56.74 54.94 44.33 39.47 37.62 37.00 37.69 36.72 36.32 40.30 37.81 41.52 40.67
51.91 53.02 55.10 57.90 59.51 60.38 61.26 61.44 60.88 59.94 59.42 58.73 58.43 59.76 60.05 60.09 59.81 59.82 59.73 59.55 59.47 59.47 59.55 59.19 57.63 53.39 45.80 39.09 41.16 47.16 44.02 41.45 38.13 35.30 34.49 34.37 34.50 33.92 33.98 34.01 33.49 33.41 34.23
52.25 52.66 54.84 56.76 59.10 60.61 61.66 61.28 61.45 61.37 59.68 58.95 59.16 59.41 59.93 59.56 59.41 59.77 59.56 59.06 58.65 57.78 53.65 45.70 42.50 39.48 38.16 37.49 37.54 36.98 36.77 35.58 34.61 33.44 32.50 32.15 32.80 32.89 32.59 32.39 32.54 32.56 32.80
54.47 55.10 55.99 56.17 57.07 58.38 61.32 61.99 62.42 61.97 60.75 59.70 59.65 59.60 59.24 58.87 59.02 58.74 57.99 51.83 47.05 43.23 39.86 37.69 36.74 35.55 35.28 35.46 34.95 34.07 32.84 31.62 31.25 30.90 30.90 30.78 31.30 32.25 32.28 31.81 30.78 29.72 29.96
54.69 54.79 55.45 56.01 56.87 56.58 56.89 60.97 61.51 61.25 61.19 60.26 59.81 59.70 59.15 58.13 57.39 51.29 44.62 41.91 38.96 36.76 35.23 34.80 33.89 33.19 33.20 33.90 33.05 31.72 30.30 29.32 29.29 30.29 29.78 29.48 29.57 31.73 32.93 30.98 30.31 30.20 29.29
53.39 52.93 54.07 55.35 56.48 56.82 57.98 58.29 59.91 60.33 59.21 59.35 58.48 57.42 54.70 48.60 43.72 40.78 38.13 36.21 34.62 33.04 32.64 31.99 32.23 32.45 31.59 32.92 32.59 31.32 29.97 28.24 27.78 28.25 28.84 29.74 29.16 29.22 29.82 30.16 28.98 26.95 25.75
51.32 52.11 53.64 54.34 56.36 57.24 57.49 55.99 51.87 49.44 49.08 47.20 45.67 45.16 43.75 40.39 37.77 35.51 34.32 32.97 31.88 31.44 30.76 30.73 31.37 31.77 32.17 32.38 32.77 32.27 29.95 28.89 28.06 27.44 26.49 26.81 28.32 28.97 29.49 27.56 25.26 24.59 25.46
48.98 49.95 50.73 51.03 51.01 50.89 49.41 45.94 43.69 43.76 42.96 41.18 39.41 38.36 37.55 36.68 35.02 33.42 32.65 31.93 30.86 29.42 28.87 28.40 28.52 29.47 30.14 31.66 32.42 32.42 31.97 31.44 29.01 27.33 27.02 27.17 28.71 28.28 27.64 26.24 27.03 27.67 27.48
45.80 45.97 45.92 46.24 45.27 45.55 44.67 39.91 39.23 39.49 39.25 37.67 35.81 35.11 34.74 34.16 33.73 32.33 31.53 30.81 30.49 29.05 28.43 27.93 27.10 27.20 28.37 28.95 30.40 30.09 30.12 29.32 27.31 27.34 27.50 28.05 29.10 27.98 27.03 27.23 27.26 25.92 23.18
40.74 41.86 42.41 41.46 39.71 40.22 39.71 38.57 38.10 37.69 35.99 34.23 33.36 33.47 32.44 32.18 32.49 32.40 31.85 30.72 29.74 28.94 28.65 28.39 27.59 26.79 27.02 29.03 29.96 29.47 28.69 29.43 28.24 28.20 27.85 26.84 27.33 26.81 26.07 24.93 24.72 23.13 21.20
38.01 38.71 38.46 38.35 37.56 37.76 36.91 37.04 36.43 35.16 32.80 31.72 30.96 29.99 29.41 29.07 28.42 28.79 29.49 29.16 30.35 30.88 28.18 26.74 26.01 23.67 22.51 24.10 25.71 25.56 25.28 26.05 26.22 27.77 25.76 23.62 22.79 21.97 21.49 21.01 20.21 19.69 18.70
30.99 30.00 29.74 32.29 36.36 37.50 36.79 35.84 35.66 33.94 31.44 29.51 28.90 28.46 27.69 27.05 26.17 24.94 24.49 28.41 27.64 27.85 27.48 27.02 25.30 25.46 25.65 25.58 25.39 25.25 25.91 26.47 27.25 23.67 20.66 19.10 17.97 16.26 16.84 15.82 15.94 15.90 14.33

GFSMW_sfc_wetblb_099.txt.gz
Wetbulb
58.57 57.95 57.68 57.42 56.59 56.90 58.72 57.81 58.35 59.18 58.31 58.35 58.25 58.39 59.57 60.96 60.57 60.88 61.55 61.10 60.33 59.19 59.75 60.01 59.14 58.36 58.76 58.36 57.10 53.95 53.84 52.56 52.93 51.79 50.46 51.57 53.24 54.17 54.07 54.08 55.43 55.72 55.49
56.69 56.75 56.25 56.26 55.53 57.41 58.18 58.42 58.87 58.31 58.90 58.20 58.28 59.19 60.25 61.02 60.56 60.97 61.10 60.67 59.11 57.86 58.27 58.55 57.09 57.62 56.73 56.19 54.38 54.22 52.70 52.16 51.70 50.81 50.29 47.67 49.33 51.96 52.30 52.38 53.82 53.70 55.59
55.47 55.75 55.72 55.23 55.37 57.37 57.93 57.87 58.17 57.81 58.96 58.35 58.48 58.35 58.69 58.91 58.89 59.87 59.65 58.62 58.67 57.56 57.12 57.68 57.61 56.77 56.21 55.03 54.66 54.45 53.28 51.71 52.26 52.37 50.06 49.33 47.59 48.74 51.24 51.28 50.89 51.39 52.36
56.48 56.15 55.51 54.72 54.99 56.73 58.27 58.70 58.53 58.46 58.72 57.10 57.55 57.06 56.44 55.83 57.44 58.18 59.16 57.82 58.07 57.59 57.25 57.85 57.45 56.90 56.73 56.25 55.28 55.45 54.26 53.60 51.47 52.09 53.57 53.99 54.91 51.18 48.79 50.92 50.85 51.70 51.65
55.89 55.58 55.43 55.49 55.53 56.56 57.21 58.24 58.86 58.25 58.62 57.96 56.97 57.03 56.30 56.60 57.18 56.66 56.58 56.82 57.31 58.04 58.14 58.41 57.67 57.07 57.08 57.12 56.95 56.46 56.47 55.80 53.51 53.14 52.84 51.87 52.36 52.69 50.88 48.54 50.40 51.08 52.05
55.89 56.40 56.11 56.15 55.14 56.35 57.11 58.21 58.34 57.67 58.27 58.28 57.77 57.03 55.52 55.05 54.33 55.27 55.29 55.43 56.26 56.87 57.28 57.73 57.69 57.50 57.36 57.64 58.18 57.72 57.18 56.67 56.35 56.16 55.41 54.72 52.33 51.54 51.39 49.93 50.58 51.11 52.45
55.51 55.50 54.99 55.04 55.18 55.90 56.91 57.72 57.49 57.68 57.89 58.19 57.07 56.31 55.03 54.85 54.03 54.38 54.80 54.50 54.54 55.75 56.22 56.13 56.79 57.09 57.86 58.22 58.42 57.98 57.39 56.79 55.51 56.20 56.30 55.99 55.44 55.21 54.17 52.08 50.51 50.37 51.77
55.94 55.68 55.55 55.32 55.65 55.94 55.92 57.17 56.90 57.31 58.06 58.20 57.45 57.10 55.93 54.79 54.70 54.96 54.59 54.29 54.53 55.20 56.40 56.07 56.63 57.50 58.28 57.86 57.97 57.66 57.63 57.56 57.15 56.20 55.81 55.97 56.20 55.79 55.05 53.34 51.46 48.88 49.02
55.34 55.35 55.57 55.99 55.69 55.80 56.00 55.96 55.97 56.84 57.90 58.28 58.15 57.31 56.63 55.29 54.77 54.61 54.35 54.44 54.95 55.71 56.33 55.96 55.79 55.99 57.55 57.94 58.09 57.68 57.55 57.23 56.62 56.34 55.67 55.67 55.77 55.85 56.26 55.41 54.10 52.96 49.78
55.22 55.76 55.20 56.29 56.33 56.31 56.01 55.76 56.50 56.44 57.28 58.15 58.42 57.84 56.88 56.42 55.56 55.25 54.62 55.47 54.88 55.31 55.52 55.53 55.48 56.06 56.87 57.57 57.49 57.41 57.80 57.35 56.78 56.58 55.59 56.30 56.24 56.17 56.74 56.86 57.04 56.34 53.97
55.59 56.07 55.86 56.38 56.82 56.65 56.33 56.12 56.15 56.04 55.72 57.07 58.41 58.12 57.20 56.37 56.63 55.56 55.58 56.30 56.05 55.63 55.26 55.58 55.60 55.41 55.58 55.36 56.42 56.75 56.86 56.14 56.12 55.67 55.37 56.12 56.28 56.78 57.04 56.70 57.06 55.81 54.49
54.31 56.46 56.77 56.36 56.59 56.33 56.47 56.24 56.17 56.33 56.40 56.34 57.43 57.81 57.28 56.37 55.75 55.80 55.71 56.51 56.10 55.91 55.67 55.34 55.20 55.01 54.82 54.75 54.56 54.50 56.51 55.82 55.45 55.59 55.61 56.01 56.04 55.47 56.94 56.86 56.05 53.52 54.35
51.01 55.40 56.98 56.37 56.54 56.29 56.67 56.84 57.05 56.54 56.89 56.89 56.64 57.01 57.19 55.90 55.58 55.69 56.14 56.39 56.22 55.51 55.59 55.66 54.88 54.95 55.14 55.06 55.26 56.23 56.26 55.79 56.31 56.09 55.01 55.47 53.35 53.17 53.08 52.71 53.63 54.30 53.84
49.40 52.87 56.49 57.18 56.68 56.89 57.06 57.31 57.29 57.18 57.30 57.21 57.01 56.52 57.22 56.79 55.93 56.27 56.60 56.77 57.36 56.57 55.51 55.43 55.35 55.94 56.00 56.08 56.23 56.83 56.34 55.82 53.37 44.99 42.63 40.67 40.06 40.93 42.89 46.64 43.58 46.01 45.63
51.99 51.20 51.04 56.64 58.16 56.71 56.94 57.49 57.30 57.56 57.09 57.28 57.17 56.53 56.79 57.61 57.36 56.80 57.27 56.86 57.72 58.12 57.96 57.40 57.02 56.48 57.05 56.77 56.20 56.14 53.12 46.34 39.67 37.85 36.95 37.15 37.30 36.74 37.01 39.64 38.41 40.26 38.93
52.57 53.09 53.09 53.33 54.57 58.14 57.23 57.33 57.24 57.26 57.80 56.98 56.86 57.60 57.32 57.57 57.04 56.73 56.86 56.69 56.78 57.72 57.32 57.25 57.21 53.52 45.16 39.24 43.07 46.36 43.09 40.37 37.27 34.48 34.43 35.04 35.28 34.77 34.52 34.38 34.00 34.28 34.50
51.15 51.71 51.75 52.30 53.11 54.11 58.89 57.67 57.55 57.87 57.38 56.86 57.34 57.68 57.81 57.56 57.62 57.55 57.03 56.69 55.41 55.72 46.86 43.27 41.77 39.02 38.22 38.00 38.45 38.04 37.41 35.40 34.21 33.46 33.07 33.10 33.26 33.41 32.77 32.44 32.41 32.19 32.50
50.78 50.74 50.81 51.24 52.65 53.87 54.19 58.29 58.86 57.95 57.10 56.74 56.79 57.25 58.00 57.64 57.85 57.43 57.27 53.93 46.66 43.15 39.87 37.69 36.81 35.47 34.97 35.46 35.32 34.38 33.25 32.11 31.69 31.99 31.86 31.67 31.77 31.95 32.09 31.12 29.98 29.78 29.98
49.93 50.13 50.81 51.60 52.87 52.27 52.82 52.92 57.29 58.09 57.22 56.38 56.33 56.78 57.07 57.13 56.73 50.88 43.15 41.34 38.69 36.68 35.24 35.03 34.27 33.11 32.86 33.61 33.62 32.67 31.34 30.07 29.73 30.27 30.45 30.11 30.36 32.44 33.47 31.30 28.76 27.53 28.65
49.09 48.76 49.74 51.52 50.21 49.06 50.74 51.32 51.69 54.37 55.38 56.18 56.04 55.66 56.01 54.65 44.98 41.36 38.61 36.74 35.34 33.47 33.07 32.15 32.73 32.75 31.73 33.10 32.60 31.63 30.00 28.32 28.15 28.68 28.94 30.34 29.83 29.17 28.45 26.40 25.82 25.24 26.01
47.62 48.04 48.24 48.84 47.18 47.06 45.88 43.28 44.01 43.84 45.08 43.50 44.83 44.10 43.01 41.29 38.73 36.29 35.55 34.34 32.89 31.98 31.32 31.09 31.60 31.69 32.21 32.18 32.71 32.19 29.87 28.52 27.26 26.42 26.78 28.74 28.74 28.27 28.35 28.27 27.41 26.09 26.07
43.86 44.47 44.65 45.29 44.31 44.07 42.44 39.90 39.05 40.54 42.31 41.86 41.24 39.40 39.48 38.06 37.29 34.77 32.91 32.38 31.58 30.29 29.73 29.27 29.28 30.34 31.43 32.49 32.71 31.98 30.76 29.33 26.94 26.42 27.64 28.00 28.60 28.60 28.51 27.21 26.32 25.72 24.63
39.48 40.82 41.53 42.49 41.32 40.97 40.46 38.62 38.23 38.66 38.15 37.60 36.80 36.34 36.58 35.47 34.95 33.34 31.50 30.80 30.79 29.52 28.49 27.63 26.86 27.21 28.83 29.55 30.30 30.01 29.60 28.92 27.70 28.36 29.07 29.22 28.58 27.79 26.48 25.45 24.48 23.43 20.77
36.68 37.42 38.92 38.55 37.24 37.85 37.79 37.41 37.18 36.75 35.80 34.60 34.22 33.54 32.88 32.57 32.52 32.34 31.96 31.15 30.29 29.26 28.11 27.36 26.67 26.69 27.15 27.20 28.52 28.74 29.03 29.56 28.34 27.63 27.30 27.03 25.21 24.56 22.67 21.73 20.86 19.43 17.57
32.62 32.52 31.96 35.98 36.17 36.12 35.29 35.47 34.94 34.25 31.92 31.06 30.38 29.39 28.86 28.13 27.30 27.61 29.62 28.96 29.06 28.31 25.60 24.70 24.42 23.08 22.65 25.24 26.98 26.96 26.59 26.94 25.87 24.14 22.83 21.33 20.48 18.94 18.42 17.47 16.31 15.74 15.48
29.72 29.64 29.73 30.77 32.37 34.81 34.04 33.38 33.23 32.16 30.25 28.47 27.79 26.82 26.16 25.61 25.19 24.52 24.41 28.31 27.43 28.01 27.79 27.11 25.20 25.53 26.61 27.40 27.81 27.83 27.57 26.18 24.34 20.51 17.35 14.60 13.98 13.73 14.30 13.45 12.86 13.58 13.17

GFSMW_sfc_wetblb_102.txt.gz
Wetbulb
56.80 56.24 57.17 57.23 56.46 56.34 56.18 56.44 56.30 58.10 58.96 57.92 57.76 57.50 59.29 59.81 60.38 61.92 62.49 62.72 61.16 58.92 56.71 57.59 56.21 56.81 55.44 56.50 55.06 53.50 52.68 51.06 51.83 50.65 49.54 50.83 53.60 54.63 54.74 55.80 55.14 54.87 54.90
54.93 55.86 56.01 55.88 56.10 55.98 55.46 55.84 56.82 58.73 58.46 58.01 57.48 57.20 58.80 60.37 60.09 60.94 61.76 61.66 61.27 59.91 57.99 58.68 57.02 58.48 56.97 56.07 54.59 53.39 51.15 50.88 51.67 50.03 48.68 47.69 49.20 51.14 52.61 54.22 55.07 53.93 55.07
53.85 54.94 54.99 54.74 54.91 55.06 55.30 56.54 56.66 57.95 57.93 58.28 58.50 58.63 58.97 60.45 59.27 59.69 59.07 59.71 59.36 59.95 59.37 59.10 58.47 58.27 57.81 56.36 55.21 54.28 52.97 52.50 51.00 52.64 49.31 46.65 45.53 47.63 50.03 50.90 52.91 52.59 52.80
55.19 55.11 54.77 53.94 54.56 54.80 55.84 56.34 56.44 56.34 57.18 58.28 58.02 57.82 58.00 57.94 58.81 59.74 59.16 57.48 57.84 58.10 58.65 57.85 58.22 57.56 56.97 55.71 55.32 54.99 52.97 52.42 51.20 51.09 52.91 53.61 52.40 48.27 48.56 50.74 50.07 50.69 51.85
54.86 54.30 54.36 54.42 54.98 55.68 56.18 55.90 56.50 56.72 56.91 57.55 57.81 57.45 57.38 58.22 58.99 59.34 57.76 56.54 56.83 57.43 58.85 58.25 57.23 56.78 56.65 56.16 55.09 54.31 53.56 52.75 52.18 51.37 50.82 50.04 51.19 52.13 50.33 47.26 49.35 50.03 50.69
54.84 55.03 54.88 54.57 54.40 55.10 56.08 56.32 56.06 56.68 57.04 56.86 57.46 56.95 56.34 56.26 56.46 57.40 56.94 56.28 56.43 56.92 57.94 58.39 58.03 57.21 56.93 56.37 57.00 56.75 55.25 54.62 53.44 53.34 53.51 52.38 51.05 50.69 50.48 48.82 49.41 49.60 51.20
54.36 53.71 53.47 53.53 53.99 54.07 55.20 56.63 56.22 56.67 57.42 56.78 56.93 56.46 56.25 56.29 56.00 56.45 56.12 55.88 55.70 55.90 56.77 56.93 57.03 56.84 57.03 57.38 57.48 57.39 56.58 56.06 55.24 54.36 53.82 55.54 55.04 54.04 53.13 51.21 49.79 49.93 51.42
54.57 53.90 53.93 53.84 54.10 54.26 55.10 56.23 56.42 56.86 57.48 57.51 55.54 56.24 56.43 55.98 56.26 56.55 56.16 56.05 55.86 56.04 56.63 56.49 56.22 56.42 56.98 57.37 57.68 57.53 57.05 56.75 55.82 55.50 55.86 56.30 56.51 55.98 55.11 53.24 51.40 47.86 48.49
54.20 53.95 54.42 54.30 54.49 54.69 55.07 55.68 56.33 57.58 57.50 57.74 57.01 55.93 55.75 54.96 55.46 56.11 56.24 56.10 56.44 56.31 56.02 56.05 55.65 55.84 56.23 57.01 57.35 56.97 56.63 56.61 56.32 56.04 55.90 55.48 55.85 54.98 55.40 53.96 53.19 51.39 48.20
54.38 54.71 54.72 54.78 55.35 55.47 55.52 55.75 56.14 57.36 57.80 58.23 57.52 56.56 55.71 54.63 54.53 55.49 54.82 55.08 55.40 56.15 55.86 55.48 55.46 55.51 56.06 56.57 56.97 56.59 56.87 56.45 56.59 56.47 56.00 55.42 55.64 54.98 54.64 55.16 55.76 54.58 53.31
53.47 54.62 55.19 55.32 55.55 55.77 55.27 54.94 55.26 55.67 57.14 58.08 57.90 57.09 56.08 55.30 54.20 53.88 53.64 54.15 54.66 55.27 55.71 55.25 54.95 54.58 54.89 56.08 56.33 56.11 56.47 56.15 55.93 55.52 55.74 55.58 55.92 56.06 55.66 55.14 55.46 54.82 54.42
50.28 55.13 55.47 55.52 55.20 54.87 55.19 54.92 55.07 55.08 55.85 57.54 58.26 57.43 56.72 56.20 54.95 53.91 53.59 54.28 53.43 53.93 54.91 55.66 54.93 54.54 54.18 54.57 55.50 55.70 56.16 55.65 55.07 55.26 53.93 55.34 56.13 55.42 55.74 55.42 54.85 54.78 55.30
49.92 52.24 54.21 55.44 55.21 54.87 55.05 55.13 55.41 55.11 55.56 56.15 57.57 57.55 57.09 56.12 55.60 54.49 54.29 54.88 55.02 54.42 54.01 54.27 54.58 54.85 54.87 54.23 53.94 54.73 54.30 54.63 55.24 55.62 55.54 55.36 53.63 53.34 52.45 52.36 54.01 54.25 53.59
51.05 51.11 53.36 54.40 55.32 55.95 55.62 55.46 55.66 55.81 55.73 55.60 55.62 56.70 56.81 56.12 56.25 55.42 54.76 54.64 55.21 54.51 54.34 54.29 54.11 54.23 54.14 54.19 54.08 53.77 53.48 53.78 53.35 47.00 44.70 42.38 42.46 43.11 44.44 46.64 43.73 45.23 43.94
50.75 50.84 51.34 52.72 53.27 55.86 56.08 56.26 56.11 56.35 56.17 55.53 54.98 55.35 56.46 56.86 56.35 55.68 55.19 55.12 55.13 54.99 54.59 54.55 54.43 54.33 54.11 53.87 53.55 53.63 53.14 51.39 41.11 38.63 37.72 37.60 37.65 36.90 37.17 39.74 38.08 39.70 38.56
49.65 50.03 50.48 51.12 51.99 53.29 55.60 56.52 56.56 56.55 56.55 55.89 55.27 55.71 55.93 56.51 56.13 55.54 55.18 55.12 55.09 55.44 54.99 54.47 53.97 53.51 52.25 41.29 43.28 49.77 46.35 42.21 37.99 35.31 35.25 35.27 35.38 34.79 34.73 34.57 33.94 34.39 34.86
49.01 49.28 49.30 50.45 51.59 51.76 52.83 52.96 56.65 56.91 56.40 55.96 56.45 56.32 56.14 56.01 56.00 55.70 55.25 55.00 54.97 55.49 56.08 53.59 49.42 41.54 39.90 39.21 40.38 39.31 39.41 36.89 35.32 34.24 33.70 33.38 33.62 33.40 32.49 32.31 31.96 31.97 31.80
48.44 48.27 48.61 50.00 49.67 48.95 49.34 51.47 56.11 57.06 56.63 56.09 56.34 56.81 56.36 55.71 56.05 55.81 55.40 55.03 51.69 47.38 42.77 40.03 38.67 36.39 35.92 36.81 36.67 35.79 34.59 33.49 33.19 33.10 33.04 32.35 31.99 32.14 31.39 30.07 29.36 29.32 29.69
47.62 47.31 47.58 49.21 47.66 46.58 47.29 47.33 47.96 50.92 56.72 56.12 56.03 56.65 56.79 56.17 55.98 55.11 54.12 43.42 41.23 39.84 37.69 36.38 35.22 33.79 33.49 34.51 34.56 33.95 32.09 30.84 30.31 30.86 31.57 32.00 31.67 32.98 32.48 28.85 28.01 27.70 28.10
45.22 44.93 45.64 46.57 45.08 44.62 45.47 44.27 44.50 44.82 45.24 48.23 54.99 55.46 56.15 55.67 53.88 45.97 41.71 39.12 37.76 35.08 34.31 32.87 33.21 33.37 32.56 34.03 33.70 32.78 31.10 28.89 28.66 29.49 28.77 29.37 28.45 29.08 29.31 28.23 26.85 24.67 24.66
42.05 42.80 43.41 43.51 42.67 42.76 43.20 41.65 41.69 40.78 42.66 43.78 47.31 46.60 47.25 45.30 42.47 39.36 37.05 34.94 33.40 32.46 31.71 31.22 31.66 31.86 32.17 32.43 32.86 32.10 29.21 28.12 27.77 26.87 26.87 28.54 30.29 29.90 28.92 27.63 25.93 24.75 25.07
38.94 40.41 40.45 41.48 39.94 39.88 41.21 39.83 38.82 39.83 40.00 40.18 40.21 41.23 41.93 39.79 37.33 35.64 34.51 33.61 32.69 31.46 30.60 30.24 30.20 31.07 31.45 31.83 31.36 30.84 30.07 29.66 27.45 26.39 27.34 28.77 29.47 28.15 26.91 25.46 24.99 23.42 21.83
36.22 37.18 38.39 38.86 38.00 38.31 38.09 37.56 37.33 38.35 37.83 36.63 35.72 35.82 36.04 35.87 34.95 33.33 32.11 31.48 32.30 30.91 29.46 28.49 27.46 27.44 28.92 29.78 30.66 30.38 30.17 29.58 27.82 28.58 29.05 28.81 27.15 25.87 24.39 23.45 21.74 19.94 18.42
32.08 33.40 34.63 36.72 35.86 36.11 35.90 35.51 35.83 35.78 35.16 33.95 33.52 33.51 32.79 32.69 32.95 32.50 31.79 30.65 30.07 28.64 27.52 26.71 25.86 25.99 26.81 27.50 28.44 28.98 29.41 29.93 28.18 25.06 24.20 23.28 22.94 21.14 20.00 19.15 18.42 17.85 16.62
30.85 31.47 31.52 32.49 34.80 34.70 33.84 34.16 33.69 32.74 30.28 29.43 28.80 28.05 27.54 27.59 27.37 28.06 28.02 27.67 28.77 28.03 25.94 25.59 25.91 24.58 24.29 26.12 28.19 28.22 26.16 24.70 24.18 23.36 22.04 20.23 19.14 17.23 16.04 15.59 15.56 15.77 14.94
29.06 29.49 29.89 30.89 31.73 32.81 32.35 32.45 32.48 31.22 29.15 27.49 27.07 26.74 26.42 26.66 26.58 26.45 26.02 28.71 27.81 28.14 27.92 27.65 26.84 27.71 29.41 30.17 29.69 27.99 26.78 25.15 23.08 18.75 15.75 14.21 14.34 13.42 13.03 11.89 12.29 12.96 12.59

GFSMW_sfc_wetblb_105.txt.gz
Wetbulb
54.58 55.75 56.48 56.62 56.34 56.14 55.90 55.84 55.75 56.00 57.50 58.65 57.97 57.85 59.11 59.59 60.58 62.06 61.23 61.55 60.17 59.35 57.35 54.68 53.62 52.21 52.85 53.81 52.79 51.97 51.63 50.43 52.36 51.80 50.11 50.80 52.23 52.64 53.74 54.50 54.46 54.81 55.11
53.01 55.40 55.28 55.32 55.58 55.46 55.70 55.33 55.56 56.76 57.18 57.56 56.56 58.06 58.97 60.14 59.55 60.90 61.47 60.75 59.11 57.33 56.42 54.07 53.13 52.16 53.88 54.18 53.20 52.20 50.35 50.09 51.95 50.08 48.96 46.29 48.62 51.51 52.74 53.77 54.12 53.40 54.61
52.65 54.72 55.20 54.96 54.98 54.91 54.73 55.44 56.52 56.98 56.94 58.19 57.80 57.90 58.05 59.61 59.15 59.48 61.28 59.74 58.27 56.96 56.63 54.65 53.98 53.68 55.65 54.54 53.40 53.02 50.96 51.10 49.41 51.98 49.52 45.73 45.80 47.04 49.50 51.41 53.08 53.15 53.38
54.14 55.15 55.24 53.85 54.63 54.78 54.70 55.52 57.21 55.72 56.14 56.84 57.02 57.15 56.58 57.48 58.74 59.01 59.89 60.35 58.77 57.94 58.34 55.73 55.74 55.61 56.82 55.89 54.60 54.47 52.53 52.41 50.60 49.51 53.24 53.05 50.84 47.27 46.01 49.55 50.51 53.09 53.27
53.48 54.71 54.96 54.77 54.47 54.42 55.20 55.92 56.02 54.65 55.38 57.45 57.45 56.40 57.94 58.77 59.13 58.02 57.52 58.94 59.40 58.72 59.03 58.39 57.81 57.01 57.16 56.54 55.52 53.88 52.61 53.66 52.26 51.86 50.23 50.36 51.68 51.29 49.19 46.71 48.95 49.62 51.36
53.03 54.94 55.14 54.40 54.03 54.52 54.55 55.13 56.30 56.22 55.70 56.28 57.69 57.52 57.36 57.66 58.16 57.44 55.86 57.26 58.28 58.13 58.28 58.25 57.82 56.74 56.33 55.40 55.06 54.28 53.67 53.60 52.91 52.43 52.20 51.31 50.62 50.31 50.63 49.59 49.67 49.35 50.39
52.07 53.96 53.02 53.20 54.24 54.33 54.34 55.08 55.52 54.99 55.78 56.35 57.21 57.01 57.23 57.63 57.87 57.68 56.32 55.60 56.62 57.52 57.59 57.95 57.31 56.72 56.63 56.84 56.74 56.20 55.66 54.18 53.05 52.82 52.89 54.30 53.13 53.60 52.25 50.92 50.22 49.57 50.93
51.76 53.81 53.34 53.69 53.79 54.12 54.52 55.48 54.93 54.87 55.84 54.97 56.57 56.83 56.76 56.99 57.62 57.93 57.22 56.41 56.80 57.59 58.17 58.29 57.78 57.63 57.07 56.87 57.26 56.70 56.48 56.18 55.15 54.73 55.07 54.16 55.33 55.19 54.38 53.01 51.38 48.29 47.94
53.28 53.32 53.40 53.57 53.64 53.87 54.36 55.74 55.13 55.36 56.02 55.42 55.72 55.82 56.23 56.39 56.63 57.13 57.27 56.87 56.92 57.04 57.72 58.15 57.77 57.26 57.47 57.57 57.27 56.60 56.32 56.32 55.80 55.54 55.09 55.24 55.60 55.94 55.84 54.98 53.74 51.64 46.38
52.90 53.42 52.96 53.49 53.96 54.18 54.57 55.42 55.78 55.50 56.22 56.18 55.36 55.15 55.29 56.22 56.53 56.58 56.13 56.39 56.60 56.64 56.32 56.18 56.50 56.64 57.00 57.16 57.00 56.40 56.66 56.34 56.28 56.16 55.34 55.10 55.36 55.16 54.98 54.46 54.56 53.51 52.74
49.15 51.77 53.82 53.95 54.27 54.03 53.99 54.66 55.26 55.60 55.88 56.44 55.95 55.13 55.43 55.34 54.69 55.73 55.97 55.54 56.04 56.08 55.76 55.56 55.23 55.52 55.78 56.36 56.30 56.06 56.16 55.58 55.74 55.70 55.36 55.07 55.36 55.27 54.56 54.76 54.68 54.38 54.11
50.63 53.03 54.20 54.38 54.66 55.21 54.42 53.31 54.41 55.64 56.22 56.93 56.37 55.40 55.83 55.12 53.85 54.42 55.48 55.57 55.38 55.72 55.46 55.38 55.13 54.59 54.63 54.49 54.43 54.29 54.96 55.40 55.03 55.13 54.63 54.91 55.14 54.56 55.21 54.86 54.34 54.10 53.74
50.09 51.67 53.95 54.06 54.59 55.07 55.34 55.13 53.80 53.79 55.27 56.57 56.42 55.78 54.99 54.83 54.28 53.31 52.68 54.30 54.94 55.28 55.66 55.34 54.77 54.35 54.30 54.61 55.00 54.84 55.01 54.48 54.97 54.77 54.55 55.04 54.67 54.75 54.57 53.11 52.73 53.23 52.60
49.71 49.20 51.85 52.84 55.30 55.90 55.15 55.23 55.19 54.44 54.07 54.93 55.56 55.62 55.38 54.85 54.69 54.07 52.81 53.13 53.44 53.40 53.44 54.70 54.51 54.24 54.23 54.13 54.18 54.07 52.84 53.02 54.06 51.42 48.21 45.33 46.21 46.59 46.80 47.60 46.55 45.61 44.90
48.90 48.86 48.73 51.72 52.80 53.58 56.09 55.85 55.61 55.59 54.62 54.18 54.24 54.75 55.37 55.38 55.65 54.30 53.31 53.40 53.99 53.38 53.01 52.95 52.94 52.94 52.72 52.88 51.87 51.84 50.77 50.30 43.34 40.46 38.97 38.20 38.45 37.90 39.22 41.77 39.49 41.38 39.53
48.34 48.90 48.90 50.24 50.73 50.71 51.59 52.74 56.14 55.95 56.08 54.95 54.16 54.75 55.73 55.31 55.03 54.95 54.16 53.25 53.45 53.59 53.44 52.89 52.74 51.88 51.95 45.72 44.44 48.50 49.38 45.74 41.05 36.70 35.90 36.13 35.73 35.02 34.66 34.28 33.63 34.48 35.69
48.10 47.63 47.86 48.74 48.29 48.06 49.22 49.54 51.16 56.04 56.18 55.65 55.83 55.31 55.02 55.54 55.24 55.53 55.16 54.20 52.81 53.09 52.21 51.89 51.35 49.75 45.96 40.56 42.38 41.53 43.16 40.63 38.16 35.54 34.00 33.58 33.75 32.74 31.54 31.66 31.48 31.30 30.90
46.55 46.28 47.09 48.22 47.11 46.59 46.66 47.80 49.27 52.13 56.50 55.93 56.03 56.10 55.53 55.20 55.82 55.01 54.56 54.36 53.95 52.50 49.93 44.94 42.27 39.35 38.41 38.70 39.51 37.92 37.14 35.18 34.43 34.09 33.52 32.01 31.28 31.41 30.40 29.81 29.46 29.45 29.25
45.04 45.43 45.99 46.87 44.35 43.80 44.37 45.12 46.01 47.53 48.42 55.41 55.73 56.04 56.13 55.86 55.46 54.63 53.94 51.75 46.93 43.69 40.43 39.13 37.49 36.14 34.92 36.18 36.04 35.72 33.31 31.84 31.55 32.20 32.38 31.79 31.06 32.13 32.11 28.92 27.82 26.75 26.38
42.01 41.90 42.76 43.88 41.26 40.85 42.79 43.19 43.26 43.66 43.90 45.33 48.99 55.14 56.35 55.66 54.59 54.65 46.44 41.16 40.91 36.54 35.18 33.40 34.06 34.17 33.19 34.75 34.85 34.21 32.26 29.26 28.16 28.94 29.49 30.40 30.07 30.72 30.06 27.91 26.61 24.21 23.46
38.96 39.91 40.97 40.22 38.75 40.30 41.88 41.44 41.04 39.49 41.06 42.91 44.11 45.16 52.68 54.81 50.70 44.82 42.34 38.48 35.00 33.51 32.27 31.30 31.72 32.01 32.55 32.82 33.38 33.20 30.07 28.30 27.43 27.58 28.03 29.27 29.54 29.06 28.61 27.28 25.10 23.25 23.37
35.11 36.05 37.98 37.76 37.57 38.23 38.71 38.47 37.05 38.56 38.93 39.03 38.57 38.87 40.23 41.99 43.53 40.05 36.44 34.97 33.45 31.45 30.59 29.83 29.48 30.33 30.93 31.71 31.79 30.90 29.97 29.59 27.57 26.80 27.10 27.60 27.93 27.10 26.06 24.21 24.11 23.15 21.12
33.51 34.82 35.21 36.83 36.80 36.29 36.00 35.17 35.51 36.81 36.59 35.78 35.05 35.02 35.19 35.75 36.56 36.38 35.18 33.49 32.88 31.61 29.91 28.69 27.57 27.82 29.50 30.35 31.10 30.29 29.68 29.17 27.48 27.18 27.48 27.48 26.00 24.27 23.21 22.78 21.41 19.16 17.68
31.82 32.79 32.87 33.26 34.16 34.47 34.27 34.15 34.13 34.28 33.46 32.35 32.58 33.17 32.33 31.95 32.29 32.63 33.11 32.04 30.67 29.31 28.32 27.08 26.24 26.60 27.21 27.67 28.62 28.70 28.91 28.32 25.52 23.80 21.95 21.40 20.87 19.51 18.96 18.91 17.94 16.77 15.90
30.16 30.72 30.84 31.47 31.68 32.89 32.83 33.10 32.45 31.70 29.65 29.20 28.59 28.03 28.26 27.87 27.49 28.33 28.88 28.70 29.02 29.25 27.06 26.98 26.99 26.01 25.52 27.21 28.03 26.30 24.85 23.71 22.90 21.68 20.60 18.73 17.51 15.78 15.50 15.27 14.94 15.07 14.20
28.49 28.73 29.40 30.06 30.01 29.90 29.69 30.82 31.34 30.44 28.88 27.55 27.37 27.45 27.29 27.14 27.02 26.58 26.57 29.42 29.10 29.68 29.93 29.46 28.28 28.30 29.53 29.35 28.62 27.73 26.57 24.94 22.84 18.45 15.82 13.99 13.66 13.31 13.03 12.34 12.20 12.31 11.92

GFSMW_sfc_wetblb_108.txt.gz
Wetbulb
48.43 53.30 54.28 55.83 57.00 57.46 57.92 57.62 57.40 56.03 58.40 58.78 58.70 59.47 59.57 60.15 60.69 61.23 61.44 60.86 60.65 61.20 61.58 59.39 56.68 56.77 55.49 53.71 53.22 52.08 52.18 50.63 53.20 51.79 50.71 51.12 52.47 52.75 53.45 54.55 54.71 55.06 55.65
49.74 53.86 53.73 55.03 56.92 57.81 56.96 56.66 57.24 56.74 58.61 58.68 58.63 58.83 58.66 59.93 60.30 61.14 61.21 60.54 60.85 60.76 59.21 56.68 55.86 55.04 54.28 52.58 52.51 52.57 50.36 50.01 53.34 50.92 49.81 48.37 50.22 52.37 53.65 53.66 54.51 54.41 55.57
46.31 52.22 53.79 54.33 55.77 56.70 56.28 56.52 56.26 57.38 57.47 56.26 58.05 56.94 58.58 59.19 59.07 59.41 60.33 60.69 59.73 58.81 56.97 56.26 54.43 53.45 53.87 52.10 52.45 52.70 51.76 51.43 50.41 53.80 49.78 46.14 46.99 49.01 50.49 52.29 53.21 53.94 53.66
46.99 50.70 53.85 53.59 55.48 56.19 55.92 54.95 56.29 56.62 55.99 56.14 56.17 55.23 56.34 57.06 58.44 58.84 60.53 60.03 58.64 57.39 55.48 54.77 52.86 53.25 54.02 52.72 52.80 53.36 51.47 53.25 50.06 50.42 52.49 51.19 49.16 47.40 46.35 49.37 51.78 53.20 53.44
45.92 49.58 53.57 54.71 55.89 55.50 54.95 56.10 56.91 55.82 54.65 54.93 56.73 56.19 55.98 57.83 58.90 57.40 58.95 57.48 57.14 56.90 55.02 54.26 53.21 54.20 54.70 53.98 53.32 52.49 52.21 53.61 51.53 51.69 50.34 51.62 51.59 51.27 48.44 46.33 48.77 49.98 53.12
45.49 49.88 53.50 53.99 54.99 54.74 55.56 56.07 55.40 55.54 54.03 54.88 57.07 55.92 55.40 57.86 57.62 56.78 56.65 56.66 56.76 56.93 55.12 55.68 55.04 56.13 56.05 54.83 54.11 53.92 53.50 53.75 53.54 52.39 51.98 52.06 51.61 51.52 51.13 49.45 49.67 49.49 51.41
45.83 50.26 52.37 52.73 54.19 54.28 54.82 54.75 55.80 55.42 55.32 54.87 57.17 56.90 56.54 58.30 57.56 56.50 56.48 57.16 56.66 56.82 55.95 56.20 56.36 56.09 55.84 55.43 54.84 53.89 53.59 53.01 52.76 52.43 52.46 53.46 53.30 53.89 53.22 51.84 50.42 50.60 51.91
50.67 50.39 52.29 52.39 53.92 54.24 54.02 55.10 55.44 55.42 55.68 56.32 56.77 57.05 57.57 58.27 58.33 57.34 56.61 57.11 57.55 57.41 56.97 56.05 56.18 56.61 56.51 56.21 56.01 55.36 55.18 54.47 53.68 53.03 53.54 53.87 54.63 54.89 54.10 52.76 51.69 49.63 49.80
48.80 51.03 52.02 53.05 54.18 54.12 53.79 54.86 54.70 55.19 55.24 55.36 56.67 56.59 56.67 57.19 57.69 57.88 57.27 57.49 58.25 58.30 57.67 56.73 55.68 55.64 56.29 56.41 56.17 55.98 55.87 55.56 55.30 54.74 54.67 54.83 55.32 55.56 55.68 55.14 53.91 51.39 48.35
49.15 51.58 52.92 52.37 54.14 54.15 55.16 55.32 54.89 54.67 54.97 55.05 55.43 56.09 56.27 56.35 57.15 57.33 56.96 56.75 57.29 58.07 57.97 57.59 57.17 56.49 56.27 56.72 56.43 55.88 55.98 55.82 55.45 55.57 54.93 54.96 55.00 55.26 54.90 54.64 54.14 53.54 52.06
48.71 52.49 53.14 53.48 53.92 54.43 54.92 55.10 54.71 54.75 55.14 55.40 54.36 53.08 53.40 56.39 56.39 56.39 56.47 56.57 56.68 56.92 57.81 57.64 57.35 57.13 56.89 56.74 56.35 56.07 55.84 55.16 55.30 55.33 55.03 54.86 55.02 54.70 54.54 54.17 53.95 53.77 53.57
48.13 51.71 53.98 53.88 53.70 53.33 54.59 55.06 55.30 55.84 55.71 56.19 55.04 53.55 53.60 54.20 53.70 55.70 55.82 56.33 56.10 56.41 56.60 56.76 57.23 56.85 56.97 57.25 56.73 56.00 56.00 55.56 55.14 55.26 54.68 54.55 54.96 54.34 54.74 54.78 54.36 54.25 54.72
48.27 49.20 52.20 54.30 54.82 54.29 54.15 54.28 55.12 55.50 56.31 56.88 55.54 53.49 53.17 53.52 53.76 54.75 55.24 55.62 55.88 55.58 55.42 55.46 55.34 56.28 56.51 56.40 56.45 56.31 55.80 55.74 55.54 55.44 54.87 54.85 54.69 54.25 54.60 54.19 53.94 53.87 52.86
48.38 48.06 49.48 51.62 52.78 55.54 55.40 54.39 53.67 54.24 54.59 56.02 56.29 55.20 53.08 53.77 53.86 53.64 53.74 55.01 55.66 55.16 54.99 55.08 55.10 54.86 54.72 54.97 55.10 55.06 54.51 54.63 54.85 53.74 52.74 51.23 50.49 50.81 50.43 50.17 50.23 48.65 47.79
48.48 48.14 48.40 48.29 49.39 50.63 53.49 55.48 54.53 54.25 54.18 53.95 54.58 55.46 55.48 55.10 54.77 53.94 53.02 53.26 54.12 54.99 55.26 54.85 54.63 54.63 54.12 53.92 54.08 54.14 53.58 52.43 47.39 42.70 40.33 39.46 39.53 38.81 40.36 44.28 43.41 44.29 43.06
47.98 47.90 48.62 47.47 47.44 47.36 48.45 49.77 51.63 54.74 54.57 53.61 53.60 54.53 55.22 55.00 55.05 54.35 53.32 53.04 52.94 52.63 52.58 53.54 53.92 52.63 51.90 45.15 45.27 50.31 52.18 50.06 44.30 38.28 36.54 36.08 35.55 34.63 34.45 34.01 33.51 35.23 37.76
46.62 46.17 46.91 47.53 45.61 45.30 45.94 46.65 48.52 50.82 54.45 54.33 54.14 54.12 54.85 55.04 54.31 54.37 53.72 52.99 52.95 53.19 52.14 51.49 50.52 48.41 48.03 41.73 43.31 43.12 48.26 46.13 41.74 36.73 34.49 33.18 32.94 32.58 31.50 31.65 31.44 31.03 30.31
44.49 44.21 44.26 45.30 43.30 42.95 43.08 44.68 46.85 48.00 49.06 54.69 55.40 54.91 54.45 54.41 54.78 54.29 54.11 53.29 53.00 52.52 51.96 50.52 48.86 45.76 42.90 39.74 40.46 38.90 39.41 37.36 36.48 35.51 34.01 31.82 30.90 31.20 30.50 28.52 27.08 26.49 26.37
41.40 41.60 42.65 42.16 40.49 40.49 42.19 44.01 44.34 44.55 45.65 45.87 50.46 55.44 55.40 54.63 54.77 54.09 53.87 53.45 52.56 49.83 46.70 44.87 42.72 41.43 37.45 37.70 37.44 37.23 34.93 32.93 32.25 32.51 32.12 31.53 30.95 32.34 31.58 27.07 24.64 24.28 24.77
38.69 39.02 40.85 40.25 38.78 39.36 40.49 42.06 41.62 41.07 40.68 41.65 43.24 45.95 49.77 54.79 53.76 53.83 52.91 45.98 47.44 39.99 37.21 34.68 35.01 35.17 34.27 35.71 36.41 35.70 32.88 31.16 30.23 30.47 30.75 31.16 30.27 30.53 29.55 26.95 24.88 22.11 22.21
35.58 37.13 39.28 37.45 36.95 37.60 38.51 38.38 37.63 37.07 38.90 39.56 40.29 40.92 42.33 50.16 54.57 52.49 44.47 41.91 37.34 34.16 32.37 31.61 32.21 32.55 33.35 34.01 34.62 33.71 31.41 29.77 28.98 28.65 28.37 29.01 29.70 29.32 28.00 26.22 23.78 22.20 22.57
34.79 35.68 36.47 36.60 36.05 35.30 35.71 35.20 34.23 35.84 37.43 37.15 36.58 36.43 36.95 38.51 42.38 43.50 39.89 36.96 35.06 32.51 30.87 29.98 29.62 30.65 31.50 32.23 32.26 31.88 31.26 30.83 27.56 26.20 26.90 27.51 27.98 27.27 25.99 24.29 24.34 23.05 20.43
32.65 32.74 33.01 34.42 34.00 34.13 33.87 32.76 32.94 34.02 34.49 34.01 33.69 33.74 34.18 34.51 35.80 35.64 35.37 34.40 34.12 32.55 30.51 29.53 28.40 28.34 29.78 30.50 31.53 30.90 29.74 28.46 26.19 26.26 26.71 26.77 25.99 24.82 23.11 22.64 21.24 18.95 17.42
29.83 30.73 31.75 31.51 31.34 32.41 32.32 32.30 32.36 32.13 30.91 29.70 29.24 29.69 30.03 30.52 31.53 32.16 32.51 32.39 32.42 31.55 29.90 28.39 27.18 27.29 27.69 28.27 29.03 28.29 27.75 28.00 25.26 22.66 20.48 20.12 20.13 18.53 17.91 17.78 17.46 16.99 16.51
29.82 30.56 30.23 29.81 28.60 29.33 29.59 30.78 31.13 30.88 29.22 28.70 28.66 28.32 28.35 28.44 28.32 28.76 28.72 28.90 29.87 31.39 28.77 27.92 27.39 26.07 25.62 27.00 27.09 25.21 22.96 21.43 20.75 20.00 18.88 17.63 16.61 15.72 15.45 15.28 14.72 14.47 13.91
27.73 27.43 27.18 27.13 27.66 27.15 26.83 27.80 28.61 28.96 28.17 27.18 27.61 27.73 27.70 27.80 27.64 27.33 27.56 30.82 30.22 30.73 30.57 30.14 28.54 28.41 28.66 28.34 27.62 26.71 25.64 24.47 22.45 18.21 15.65 14.20 14.05 13.35 13.19 12.16 11.75 11.97 11.46

GFSMW_sfc_wetblb_111.txt.gz
Wetbulb
52.79 54.76 59.02 59.44 60.36 61.68 61.97 62.69 62.81 62.72 61.57 61.23 60.46 60.25 59.62 61.42 61.76 62.09 62.12 62.01 61.48 61.75 61.84 61.89 60.15 59.79 58.80 58.64 59.88 58.56 58.13 57.60 59.66 57.36 57.12 57.90 58.82 59.49 59.86 60.61 60.55 60.40 60.96
50.97 52.92 57.74 57.87 59.09 59.96 61.29 61.18 62.03 61.16 61.50 61.11 60.73 62.52 61.95 61.56 62.13 62.54 62.61 62.89 61.59 61.40 61.67 60.95 59.27 58.36 57.20 57.13 57.92 58.75 57.50 57.32 58.76 56.96 56.44 53.32 55.50 57.46 58.60 59.59 59.41 59.91 60.21
50.72 52.76 54.36 57.71 57.88 59.18 58.74 59.43 60.47 60.44 61.37 62.03 61.20 59.95 61.24 61.00 60.76 61.42 61.95 61.74 61.35 61.08 61.05 60.68 59.81 58.47 56.83 55.26 56.04 58.90 58.24 55.71 57.91 59.22 57.21 52.93 52.68 54.65 57.29 58.07 58.67 59.15 59.07
53.12 52.53 52.59 56.85 57.80 58.59 58.48 59.10 60.05 60.06 59.77 60.02 59.51 58.42 58.84 58.43 60.23 60.76 61.86 60.81 60.85 60.77 59.49 58.56 59.12 58.34 56.94 55.18 55.88 58.80 59.34 58.30 56.09 58.04 57.07 58.96 57.42 54.52 52.74 56.32 57.88 58.68 58.43
53.38 51.90 52.93 56.10 58.43 59.24 57.36 58.66 60.57 59.74 57.89 59.00 58.98 58.08 59.14 60.20 60.32 60.36 60.31 60.56 60.13 58.92 57.79 57.25 56.83 56.87 56.57 56.44 55.37 57.27 58.89 59.10 57.67 57.45 56.48 56.41 56.89 56.89 55.22 52.85 54.85 56.83 58.45
54.21 55.89 55.00 56.82 57.97 59.22 56.57 59.10 59.86 57.50 57.40 59.70 59.32 59.13 58.30 58.43 58.86 58.93 58.88 58.64 57.92 56.46 56.42 55.08 55.03 55.69 55.79 55.91 56.52 57.03 59.10 58.68 58.47 58.75 57.92 56.53 56.01 55.71 56.62 55.79 54.85 54.92 56.28
53.63 54.85 55.50 56.04 56.86 55.61 55.67 57.34 57.91 56.13 57.54 59.63 60.10 59.61 58.37 57.86 59.11 58.68 58.12 56.10 55.95 54.55 54.24 54.21 54.97 55.89 56.35 56.16 56.01 56.88 57.82 58.56 58.19 58.61 58.11 59.15 58.61 59.13 58.39 57.87 54.78 54.95 56.89
53.80 54.96 55.32 56.19 55.86 54.76 55.27 56.34 55.85 56.07 57.00 58.80 59.32 59.61 59.54 58.88 60.02 58.65 58.69 56.69 56.54 54.92 55.44 54.83 56.41 57.20 56.78 55.78 55.90 55.80 56.76 58.22 57.06 56.41 57.39 58.65 59.10 59.60 59.23 57.45 55.92 55.02 55.52
54.19 54.91 55.52 55.97 56.18 55.41 54.92 55.63 55.72 56.42 56.12 57.77 58.31 58.21 58.73 59.15 58.90 58.47 58.75 58.41 58.02 56.28 56.16 56.38 56.91 57.10 56.61 56.46 56.33 55.76 56.07 55.84 56.03 56.53 57.79 57.93 57.68 58.70 59.20 58.86 58.90 56.11 50.82
53.63 55.00 55.26 55.68 55.93 55.39 55.21 56.08 56.53 56.04 56.58 56.72 57.37 57.55 57.64 58.50 59.02 58.40 57.73 58.38 58.29 56.57 55.70 56.06 56.29 56.68 56.47 56.90 57.01 56.88 56.92 56.65 56.98 57.35 57.30 57.42 57.79 58.27 58.51 58.16 57.44 57.67 54.75
52.27 53.15 54.81 54.86 54.88 55.08 55.20 55.10 55.45 55.53 55.98 55.91 56.60 56.72 56.84 57.90 57.87 57.70 57.55 58.06 58.23 57.95 56.34 55.34 54.81 54.44 54.71 56.02 56.25 56.11 56.51 56.20 57.13 57.43 58.05 56.79 57.22 57.45 57.52 57.11 55.78 55.64 54.72
51.20 52.15 51.99 54.69 54.37 54.63 54.59 54.51 55.38 55.87 56.13 56.12 56.27 56.58 56.73 57.11 57.77 56.87 57.13 57.53 57.29 58.18 57.88 56.83 55.74 54.46 53.77 54.42 55.55 56.16 55.98 55.43 55.05 55.73 55.24 55.16 55.04 55.66 56.52 55.06 55.10 54.86 54.41
49.77 50.15 49.78 50.49 51.20 54.67 54.73 55.32 55.96 55.99 56.31 56.67 57.40 55.97 55.97 56.18 56.54 57.25 56.83 56.93 56.71 56.80 56.88 57.58 56.82 55.72 55.58 55.26 55.32 55.73 55.81 55.38 55.30 55.40 55.20 54.91 54.98 54.49 55.01 54.77 54.89 55.12 54.11
50.03 50.23 50.27 48.76 48.95 49.98 54.81 55.18 55.99 56.93 57.50 57.81 57.46 56.16 56.18 56.92 55.99 56.50 56.27 56.61 56.87 56.65 56.37 56.54 56.82 56.95 56.69 56.17 55.71 55.59 55.98 55.76 55.79 55.66 55.26 54.99 54.41 54.09 54.27 54.32 54.28 52.28 52.37
49.41 49.50 48.84 47.70 47.24 46.97 48.06 50.17 53.69 55.99 57.39 57.89 57.24 56.29 57.01 57.22 56.24 55.58 55.93 56.15 56.22 56.17 55.95 55.70 55.74 55.58 56.00 56.54 56.56 56.44 55.96 55.62 53.79 48.81 46.02 44.11 43.31 41.18 43.95 47.81 47.87 47.69 46.98
47.59 48.01 48.59 46.55 44.93 44.56 44.68 46.87 48.25 49.84 54.26 56.42 56.81 57.00 56.46 56.72 56.53 55.75 55.05 55.32 55.76 55.74 55.50 55.00 54.85 54.44 53.49 45.48 45.11 51.36 53.94 52.14 46.66 40.89 39.02 38.81 37.18 35.84 35.12 34.70 34.36 38.37 44.69
45.37 44.84 45.26 43.92 43.07 42.25 43.17 44.14 47.36 49.44 50.67 55.02 55.57 56.53 56.54 56.60 56.46 56.32 55.38 54.71 54.73 55.30 54.67 54.54 54.51 53.39 53.60 43.83 44.39 44.39 52.51 49.37 43.82 38.79 36.36 34.66 34.37 34.42 32.94 31.51 30.67 30.43 30.53
42.74 42.34 43.04 41.02 41.06 41.58 42.12 44.47 46.04 46.26 47.86 47.32 51.63 55.21 56.21 56.40 56.57 56.75 55.53 55.60 55.54 54.42 53.63 52.94 52.83 52.58 51.82 42.15 42.52 41.11 47.20 44.43 41.38 38.10 36.07 33.96 32.59 32.42 30.77 28.95 27.17 26.46 26.43
40.69 41.34 41.95 39.99 39.91 39.34 41.28 43.33 42.19 42.66 43.13 42.23 43.76 45.27 48.00 55.03 56.09 55.66 55.34 55.65 54.16 54.04 54.04 52.52 51.12 50.17 44.74 38.74 38.52 40.42 38.27 34.83 33.33 33.44 33.24 32.43 31.17 31.42 31.67 27.85 25.60 25.20 25.75
38.85 39.59 39.68 39.27 38.09 37.88 39.78 39.49 38.56 38.95 38.87 39.23 40.67 41.97 43.26 45.34 53.59 55.08 55.18 54.09 53.41 50.89 44.61 41.61 44.24 40.47 38.03 37.22 37.85 37.45 34.38 32.05 31.47 31.96 32.09 32.18 30.70 29.63 28.76 26.89 24.97 21.86 21.11
37.42 38.16 38.82 37.28 36.26 36.80 38.32 36.89 35.83 34.96 36.69 37.65 38.24 38.11 38.86 40.94 43.40 53.26 51.02 48.56 41.85 38.18 35.86 34.73 35.98 37.63 37.63 36.77 36.73 36.40 35.07 32.03 30.57 29.91 29.66 30.06 30.01 29.15 28.07 26.32 24.09 21.67 21.73
34.71 35.21 35.86 35.39 35.51 35.19 35.57 34.33 33.24 33.96 34.98 35.12 35.17 35.34 35.30 36.22 38.59 40.97 40.00 38.92 37.18 34.28 32.53 31.39 31.19 32.08 33.33 34.57 34.99 34.48 33.36 32.52 29.53 28.14 28.33 28.58 28.69 27.82 26.66 25.16 24.80 23.24 21.27
32.66 33.88 33.94 33.14 33.26 33.15 33.15 31.56 32.03 32.79 32.73 32.18 31.55 31.74 32.42 32.88 33.88 35.39 35.39 34.08 33.83 32.73 31.43 29.85 28.61 29.38 31.29 31.78 32.28 31.47 30.45 29.26 27.13 27.30 27.73 27.79 26.53 25.41 23.77 23.49 22.34 20.13 19.22
31.54 32.21 32.28 31.11 29.93 30.62 30.78 30.78 31.76 32.15 31.13 29.99 29.96 30.20 30.41 30.39 31.07 31.61 32.63 32.99 32.28 31.08 29.73 28.55 27.86 28.09 28.06 28.38 28.66 28.24 27.87 28.11 25.37 22.95 20.29 19.97 20.17 19.61 19.49 19.76 19.63 18.94 18.24
30.29 30.02 28.64 28.74 28.15 28.95 28.54 29.27 30.24 30.95 29.78 29.56 29.31 29.05 29.19 29.36 29.24 29.63 29.94 30.05 31.19 31.40 28.84 28.29 27.99 26.44 25.04 26.05 25.45 22.79 21.10 20.29 20.44 20.06 19.16 17.91 17.58 16.94 16.35 16.37 16.32 16.07 16.63
28.59 27.82 27.19 27.29 27.26 27.15 26.87 27.30 29.00 29.84 29.27 28.25 28.12 28.08 28.21 28.48 28.66 28.35 28.35 31.06 30.64 30.93 30.43 29.53 27.33 27.04 27.02 26.79 26.43 25.70 25.24 24.27 22.75 19.03 16.72 16.33 15.72 15.24 14.52 14.25 13.93 14.37 14.04

GFSMW_sfc_wetblb_114.txt.gz
Wetbulb
56.70 57.88 58.46 60.58 63.91 64.35 64.36 65.76 66.47 67.68 64.46 63.94 63.37 64.03 64.00 63.63 64.55 65.69 63.72 63.11 63.61 63.15 63.37 62.51 62.80 62.81 61.95 63.74 62.97 63.65 62.71 62.04 62.92 60.78 60.15 60.53 61.19 61.48 61.30 61.97 61.75 61.95 62.39
54.74 55.64 56.90 60.77 63.49 64.16 64.65 65.15 66.10 67.00 63.63 64.04 65.34 64.80 62.78 62.93 62.99 64.00 63.88 63.88 62.56 62.29 62.50 62.12 62.02 61.47 61.97 61.52 60.86 62.65 62.20 61.69 63.17 59.66 59.26 55.31 57.31 60.13 61.13 61.18 61.00 61.61 61.70
52.77 54.99 56.74 58.93 62.53 63.57 64.48 64.86 65.85 66.81 65.59 66.84 64.53 65.53 65.02 63.53 63.75 63.63 63.70 63.16 62.77 62.30 61.95 61.86 60.99 60.65 60.65 59.58 59.57 62.07 62.35 60.19 61.96 62.64 59.42 55.19 54.34 57.46 60.11 60.17 60.28 60.70 60.76
56.29 57.63 57.95 58.24 60.71 63.11 64.63 64.50 65.62 65.39 65.53 66.86 64.89 64.44 62.76 61.32 62.68 63.61 64.09 63.19 64.67 64.06 62.06 61.79 60.42 59.80 59.96 59.40 58.48 59.68 60.45 62.04 59.69 61.36 61.06 60.93 59.94 55.81 54.80 59.29 59.70 60.20 59.88
57.88 58.96 59.25 59.16 59.99 63.08 63.32 61.89 63.44 63.80 64.91 66.19 65.61 63.90 62.43 62.91 62.71 63.93 63.93 64.27 63.61 62.58 62.37 61.32 60.44 59.58 58.89 58.38 57.87 58.87 59.27 60.54 61.87 60.82 59.63 60.43 59.91 60.47 57.19 54.37 56.62 59.62 60.52
57.59 59.01 60.07 59.07 60.44 63.42 60.79 60.45 62.18 61.69 62.11 63.44 64.33 63.42 62.21 61.24 61.52 62.11 62.56 62.43 62.27 61.45 60.53 59.70 59.91 59.28 58.25 57.38 57.96 58.33 59.16 62.26 62.35 61.75 60.71 59.31 58.31 58.09 57.51 55.86 56.69 56.97 59.01
58.29 58.95 59.30 60.17 60.56 61.36 58.74 59.47 61.15 59.98 59.70 61.17 62.00 62.68 62.17 60.19 60.19 59.95 61.64 60.51 59.37 57.23 57.59 57.95 57.83 58.13 57.66 57.04 57.76 58.12 58.83 61.35 61.60 61.20 61.40 60.66 60.05 59.99 58.56 57.70 56.47 56.25 58.96
58.74 59.02 59.33 60.35 59.57 58.47 58.52 58.66 59.74 58.78 59.29 61.46 61.87 62.23 61.31 61.18 61.15 62.60 61.58 60.02 58.60 57.05 56.33 55.83 56.47 56.81 56.92 56.86 56.71 57.16 57.91 59.62 61.11 62.30 61.65 60.79 60.40 60.91 60.32 58.95 58.18 56.33 56.70
58.09 58.58 59.26 59.68 59.38 57.43 57.09 57.70 58.30 58.52 59.23 62.05 62.31 61.69 61.03 60.96 60.90 62.64 61.48 58.89 58.88 55.81 54.69 55.37 55.59 56.05 55.81 56.33 56.58 56.51 57.24 59.04 60.15 61.92 62.87 61.56 61.10 62.01 61.27 61.11 60.18 57.40 53.73
56.44 57.10 57.90 57.85 57.82 57.14 57.49 57.87 57.83 58.38 58.63 60.96 60.55 60.69 60.43 61.74 61.93 62.40 59.63 58.37 58.10 56.50 55.04 55.81 56.19 55.83 55.55 55.73 56.50 57.24 58.70 59.77 60.24 59.44 59.27 59.78 59.89 60.36 61.07 60.86 60.22 59.80 57.08
55.78 56.15 55.36 56.34 56.79 56.30 56.35 56.69 56.70 57.57 58.39 58.73 59.51 59.69 59.23 60.90 61.54 61.08 60.54 59.01 58.01 56.35 55.61 56.17 56.13 55.55 56.11 56.32 56.19 57.47 57.21 57.68 58.38 58.93 58.77 58.80 59.77 59.64 59.49 60.03 59.38 58.34 57.60
54.77 55.17 55.16 52.11 51.38 55.00 55.63 55.61 55.99 56.98 57.89 58.42 58.37 57.72 59.26 60.51 60.35 59.40 59.02 59.00 57.35 56.37 56.15 56.07 56.11 56.01 56.67 56.90 57.10 57.61 57.66 57.57 57.29 57.83 57.30 57.94 58.28 58.89 59.19 58.86 58.16 58.31 58.39
53.45 53.62 53.36 52.21 48.73 49.12 54.31 54.86 55.55 56.40 57.67 57.33 56.50 57.40 58.12 58.87 59.53 59.98 59.68 58.78 58.21 57.28 55.87 55.30 54.64 54.90 55.91 56.02 56.33 56.25 56.14 55.62 56.50 56.72 56.66 57.79 58.40 58.12 58.25 58.16 56.72 56.81 54.93
52.95 52.89 52.42 50.45 48.38 47.30 47.64 48.92 54.70 57.06 56.99 56.67 56.84 57.37 58.54 60.17 60.41 60.97 59.81 59.02 58.25 57.31 57.05 55.99 54.98 54.70 54.31 54.39 54.94 55.87 56.14 56.09 55.65 56.13 55.96 55.43 55.69 55.17 54.60 54.36 54.38 54.23 53.92
51.87 51.37 50.48 48.85 46.70 45.81 46.30 46.71 48.70 50.82 56.17 57.01 57.64 57.72 59.10 59.78 59.26 59.59 60.26 59.79 59.09 58.32 57.74 57.46 56.53 55.59 54.92 54.88 54.19 54.25 54.58 55.67 55.18 53.57 52.96 50.63 48.50 45.04 47.07 52.26 52.96 53.07 52.86
49.95 50.18 49.43 48.52 45.71 43.72 45.01 45.67 46.83 48.75 51.26 53.66 57.50 58.27 57.51 57.64 58.38 59.02 58.58 58.89 59.42 59.47 59.40 58.24 56.23 55.32 55.12 46.60 46.23 51.87 54.43 54.86 54.25 46.42 41.60 40.05 38.74 36.70 35.89 35.47 34.49 36.60 47.68
47.58 47.54 46.83 45.97 46.24 44.06 43.41 44.98 45.21 46.82 48.30 48.94 55.04 57.35 56.59 56.45 56.79 58.27 57.86 57.70 57.57 58.36 57.91 57.24 56.85 56.69 55.41 43.88 44.78 44.97 55.10 54.06 48.68 41.81 38.87 36.97 35.80 35.40 33.97 32.54 31.71 30.85 31.20
46.41 46.32 46.02 45.47 45.44 46.18 44.16 44.71 43.62 43.94 43.92 44.55 45.36 46.85 52.03 56.61 57.02 56.82 56.69 57.55 57.69 57.18 56.85 57.00 57.11 56.39 55.53 43.15 43.33 42.79 49.94 46.00 42.53 39.77 37.89 35.64 35.15 36.01 34.16 31.46 29.37 28.20 28.09
45.28 45.29 45.30 44.10 44.04 43.67 44.48 43.16 41.41 41.54 40.62 39.98 41.99 42.63 44.06 46.66 50.99 56.59 56.68 57.43 57.12 56.79 56.41 55.80 55.51 55.33 56.42 41.52 41.34 43.94 42.75 39.92 37.65 38.15 36.91 35.63 33.17 32.92 33.55 30.11 27.48 26.41 26.19
43.76 44.06 44.05 43.28 41.95 42.21 43.47 39.16 38.67 38.25 37.76 38.28 39.21 40.82 40.84 41.94 44.55 46.41 56.12 56.61 57.82 57.10 54.84 52.90 51.25 46.56 49.91 38.77 40.00 43.99 40.58 36.66 34.76 34.19 33.36 32.90 32.24 31.08 30.70 29.04 25.43 22.24 22.00
41.26 43.10 42.56 40.98 39.72 40.32 40.97 39.03 36.87 34.79 36.32 37.70 37.65 38.72 38.64 38.52 40.69 42.35 47.61 53.43 49.73 44.50 40.56 36.01 35.85 36.28 37.51 37.63 37.82 39.46 41.02 36.21 33.23 31.71 30.47 30.64 30.51 29.74 28.79 26.80 23.90 21.87 21.74
40.05 40.60 40.27 38.66 38.29 38.05 37.61 36.73 35.45 34.74 35.18 35.35 35.39 35.98 36.28 36.44 37.30 39.37 39.36 40.22 39.45 36.00 34.12 32.97 32.13 32.67 33.69 34.14 34.64 34.55 34.43 34.09 31.22 29.12 29.08 29.39 29.09 27.66 26.51 24.85 24.69 23.83 22.35
38.01 38.59 38.53 37.43 36.41 35.88 34.57 33.70 33.66 34.67 33.96 34.01 33.49 33.81 34.71 34.63 34.33 35.23 35.43 34.64 34.40 33.33 31.92 31.18 30.09 29.92 31.17 31.54 32.11 31.89 31.07 30.17 28.02 28.50 28.86 28.56 27.47 26.31 24.68 24.54 23.41 22.35 22.04
35.33 35.84 35.88 34.64 33.79 34.29 33.12 32.68 33.47 34.77 33.58 32.57 31.63 31.99 31.75 32.04 32.26 32.68 33.45 33.45 32.45 31.15 30.53 29.31 27.98 27.51 27.45 27.85 28.59 28.48 28.35 28.68 26.09 23.69 21.86 21.83 22.04 21.47 21.09 21.29 22.12 22.54 22.97
34.50 33.96 32.53 32.07 31.69 32.49 31.17 31.70 33.01 33.68 31.65 30.85 30.82 30.68 31.14 30.82 30.38 30.36 31.22 30.94 31.66 31.76 29.38 28.46 27.60 25.91 22.72 22.97 23.51 22.20 20.76 20.46 20.78 20.16 19.66 18.89 18.74 17.77 17.68 18.15 18.61 19.28 19.25
32.55 31.43 30.69 30.41 29.97 30.24 29.61 30.16 31.32 32.34 31.15 29.52 29.32 29.80 29.96 29.76 29.25 28.45 27.82 30.25 30.07 29.83 29.50 28.39 26.32 25.91 26.54 26.50 26.08 25.83 25.08 24.43 23.60 20.30 18.46 18.49 18.82 17.74 17.45 17.22 16.59 18.04 17.44

GFSMW_sfc_wetblb_117.txt.gz
Wetbulb
58.09 58.94 60.12 60.78 60.93 63.42 64.28 64.97 66.26 69.17 70.23 68.76 67.70 65.89 65.26 65.06 65.90 66.31 66.62 67.35 67.39 66.72 67.15 66.32 66.24 64.40 63.12 62.63 62.77 61.92 60.75 59.89 63.57 60.71 60.14 60.58 61.99 62.70 60.83 61.35 61.42 61.96 62.52
56.29 57.62 59.00 59.92 61.58 61.64 64.64 65.05 66.34 68.15 69.11 66.97 65.95 67.04 67.56 66.60 67.14 66.46 66.19 66.03 65.67 66.11 65.59 65.57 64.20 63.23 62.79 62.36 60.98 61.39 59.38 59.51 63.02 59.87 58.58 55.17 57.09 59.81 60.38 61.01 61.23 62.88 61.44
54.68 55.30 56.62 58.39 59.85 62.44 64.74 65.17 66.36 67.39 68.30 65.25 66.35 67.47 66.98 65.50 64.09 63.59 64.61 65.45 65.08 64.31 63.66 63.53 63.60 62.83 61.89 61.09 60.81 61.24 59.24 57.79 60.60 62.28 59.06 55.30 53.86 56.88 59.77 60.19 60.47 61.97 61.05
53.79 54.53 55.66 57.46 59.66 62.40 65.14 65.79 66.36 66.87 67.55 65.90 66.47 66.80 64.70 62.61 64.22 64.61 64.94 64.75 65.66 64.40 63.13 62.61 62.29 62.17 61.92 61.35 60.57 61.72 61.42 60.23 59.03 61.18 61.55 61.94 60.35 55.61 54.51 58.88 59.69 60.57 60.09
56.26 57.34 58.24 59.10 59.92 62.29 64.76 66.18 66.59 66.86 66.94 66.78 67.20 66.56 66.25 65.23 65.09 64.70 64.82 64.41 64.73 64.88 63.52 62.31 61.63 60.78 61.13 61.13 60.28 60.21 60.78 60.60 61.03 60.83 60.22 60.61 60.83 60.60 57.38 54.58 56.63 58.58 59.75
57.78 58.71 60.34 61.94 61.13 65.10 65.60 65.51 65.50 66.28 66.53 66.26 67.26 66.52 66.13 65.17 64.08 63.78 63.51 63.54 64.30 65.12 63.65 63.23 61.62 60.48 60.50 60.21 59.74 60.12 60.34 60.42 60.89 62.10 61.88 60.77 59.02 58.54 59.10 57.08 57.41 56.86 58.67
58.20 59.07 59.95 61.23 60.88 63.06 64.04 61.72 62.75 64.04 64.57 65.25 66.40 66.40 66.00 65.12 64.04 63.75 63.12 63.20 63.31 63.01 63.21 62.65 61.10 60.27 59.84 59.64 59.31 59.25 59.68 59.53 59.48 59.51 60.34 62.56 61.29 61.38 60.58 59.17 57.67 56.60 58.56
59.08 59.38 60.51 61.51 61.42 62.32 62.75 59.46 60.91 61.77 61.72 63.91 65.16 65.39 65.42 64.48 63.57 63.24 63.12 62.65 63.00 62.67 61.96 61.54 60.27 59.91 59.37 59.22 58.74 58.92 59.30 59.36 59.35 58.80 59.81 61.40 61.55 60.92 60.85 58.92 58.25 55.22 56.62
58.74 59.65 60.68 61.12 61.16 60.30 58.90 58.61 60.18 60.51 59.96 61.93 63.81 63.61 63.99 63.45 62.55 62.80 63.56 63.46 63.39 61.72 61.68 58.81 58.31 58.89 58.59 58.28 58.30 58.23 58.56 59.03 59.38 59.12 59.23 59.63 61.12 62.95 62.67 62.06 61.64 57.24 54.28
57.72 58.34 59.03 59.03 58.78 58.06 58.10 58.56 59.54 59.52 59.82 61.85 62.58 62.77 63.04 63.32 63.02 62.54 62.43 62.58 61.42 60.33 57.36 56.05 56.17 56.41 56.93 57.25 57.35 57.49 58.59 58.45 59.08 60.13 59.32 59.62 60.74 60.99 62.65 62.61 61.20 61.20 58.17
57.28 56.95 55.82 56.03 55.79 57.61 57.50 57.43 57.84 58.39 59.06 60.86 61.72 62.58 62.22 62.50 62.04 62.17 62.39 62.04 60.32 59.12 57.03 55.74 56.01 55.68 55.43 56.15 56.21 56.49 57.53 57.84 58.29 58.91 59.46 59.46 60.29 59.48 60.71 61.67 60.73 59.65 58.86
56.04 56.00 55.40 54.74 53.21 52.72 55.88 56.37 56.99 57.82 58.98 59.56 60.03 61.08 60.99 61.19 61.67 61.53 61.87 61.69 58.98 58.28 55.87 56.13 56.09 55.28 55.26 55.71 55.72 56.15 57.17 57.24 57.52 58.20 59.05 59.52 59.91 60.16 59.58 59.54 59.03 58.78 58.09
54.95 55.09 54.51 53.00 51.32 49.51 49.40 50.18 55.90 56.92 57.90 58.94 58.83 59.30 59.52 60.51 60.93 60.62 60.85 59.64 57.66 56.69 56.15 56.31 55.62 55.06 55.10 55.26 55.72 56.13 56.77 57.38 57.94 58.89 59.54 59.51 59.69 59.04 59.42 59.00 58.04 58.32 57.03
54.04 53.54 52.45 51.33 50.59 48.13 47.94 48.06 49.22 50.88 56.92 57.97 57.92 58.38 58.37 58.99 59.79 61.32 61.06 59.89 57.99 56.47 55.76 55.86 55.77 55.91 55.53 55.56 55.62 56.15 56.19 57.75 58.49 59.04 58.39 58.24 58.01 56.65 57.44 57.25 58.04 57.99 56.98
51.53 51.70 51.19 50.62 49.72 47.73 46.63 47.42 47.80 48.50 50.56 53.65 56.87 57.66 59.74 59.87 60.33 60.34 60.51 60.43 59.04 57.60 56.36 55.65 54.96 54.77 55.12 55.58 55.55 55.66 55.66 56.71 54.90 53.61 53.78 53.38 52.57 51.17 53.42 55.85 56.11 55.56 52.75
50.90 50.22 49.87 49.97 49.42 47.67 44.98 45.92 46.18 46.89 47.62 47.72 51.19 58.84 58.96 59.22 59.76 60.01 60.50 59.76 59.39 58.89 57.43 55.81 55.34 54.03 53.80 46.52 45.07 51.29 54.67 54.68 53.68 52.22 46.05 44.12 41.70 38.65 37.67 37.10 36.26 40.36 52.29
49.79 48.99 48.65 48.17 48.45 48.74 46.35 43.83 44.40 45.51 44.62 44.54 45.44 47.25 56.53 57.13 58.00 59.37 59.24 59.12 59.15 59.75 58.79 57.99 56.47 55.02 54.63 44.71 45.07 44.35 53.60 53.15 53.46 49.94 43.98 39.86 38.09 37.78 36.16 33.71 32.99 32.18 32.51
48.27 47.97 47.73 47.52 47.41 48.28 48.71 46.88 43.32 42.63 42.33 41.54 42.02 42.95 44.54 48.12 54.81 57.11 58.46 58.76 59.07 58.74 57.99 58.46 58.11 56.59 55.66 43.26 43.80 42.90 54.25 53.20 48.62 45.37 44.92 41.41 35.81 35.40 34.58 32.12 29.04 28.29 28.69
47.76 47.43 47.10 46.53 46.46 46.54 46.89 46.56 43.87 40.42 39.67 39.20 39.44 39.99 41.60 42.41 45.35 50.32 56.98 57.98 58.09 58.31 57.87 57.63 56.65 56.70 55.93 41.63 40.54 44.28 45.13 40.67 38.17 37.79 37.97 37.42 34.92 34.55 34.75 30.30 27.20 26.78 27.34
46.48 46.39 46.07 45.24 44.29 44.40 45.79 44.02 41.45 39.37 36.90 36.98 37.68 38.47 40.12 39.60 40.94 43.15 45.58 52.82 57.75 57.99 57.91 54.41 49.69 43.40 46.72 38.69 39.99 44.17 40.67 36.02 34.21 33.56 32.91 33.57 33.21 33.02 32.15 29.58 26.80 23.97 23.64
44.00 45.90 44.77 42.85 41.91 42.42 43.55 42.02 40.46 37.41 36.84 36.62 37.09 36.95 37.04 38.02 38.96 40.28 43.51 46.15 49.40 44.50 39.78 36.63 36.60 37.29 38.63 37.63 38.53 39.65 38.33 35.02 32.44 31.26 30.52 30.99 31.35 30.94 30.15 28.08 24.58 21.95 22.41
42.71 43.50 42.64 40.87 40.54 40.46 40.43 39.38 37.15 37.23 36.53 35.41 35.25 35.58 35.92 35.97 36.02 37.93 38.70 40.16 40.14 36.31 34.03 32.88 32.08 32.96 34.34 35.04 35.81 36.27 35.39 33.93 30.76 29.11 29.49 29.67 29.31 28.01 26.97 25.33 25.40 24.36 22.62
40.52 41.21 40.92 39.86 39.00 38.54 37.79 36.69 36.25 36.97 35.96 34.52 33.95 33.29 34.11 33.87 34.31 33.83 34.73 34.79 34.93 34.22 32.85 31.53 29.33 28.97 30.73 31.68 32.76 32.38 31.70 30.77 28.43 28.25 28.58 28.57 27.57 26.66 25.40 25.32 24.42 23.32 22.43
38.17 38.84 38.25 36.99 36.10 36.72 36.03 35.92 36.15 36.14 34.04 32.42 32.05 32.41 31.47 31.15 31.75 32.61 32.45 32.79 32.52 31.94 31.04 29.55 27.71 27.56 27.53 28.28 29.12 29.19 29.01 29.07 26.56 24.61 23.23 22.78 22.89 22.40 22.55 23.14 23.88 23.39 23.43
36.97 36.56 35.37 34.14 33.95 34.54 33.97 34.07 34.35 34.99 32.51 31.52 31.69 31.23 30.88 30.21 29.06 28.93 29.85 29.69 30.34 31.47 29.30 27.97 26.59 23.64 22.00 22.43 23.57 23.14 22.04 21.76 21.65 21.45 21.06 20.34 19.73 18.64 18.96 19.66 20.63 21.66 21.51
33.03 32.20 31.75 31.21 31.12 31.70 30.76 31.08 32.36 33.18 32.38 30.16 30.07 30.09 29.73 29.31 28.85 27.73 27.16 30.01 29.29 29.09 28.69 27.99 26.45 26.16 26.55 26.62 26.38 26.00 25.59 24.96 24.58 21.21 19.77 19.35 20.61 19.22 20.31 20.25 20.06 20.34 20.73